Terug naar catalogus

STARLINK-35666

ActiefCommunicatieVLEO
NORAD 66222·PAYLOAD·🇺🇸 United States

Gelanceerd Oct 28, 2025 vanaf Vandenberg Space Force Base

Loading…

Volgende Passages (komende 24 uur)

TLE

VersSource: CelesTrak SupGP

Epoch: Sep 14, 2026, 20:50 UTC

1 66222C 25244S   26257.86854167  .00001940  00000+0  57338-4 0  2572
2 66222  53.1594  69.7372 0001283  85.3769 295.3355 15.34374847    12

Volg STARLINK-35666 in realtime met AllMySat

Download on the App Store